Starlink 2624

operational
NORAD ID: 48358 Int'l Des: 2021-038 Owner: SPXS Country: US Constellation: starlink
LEOCIRCULARSTARLINK_TYPE

About Starlink 2624

Description loading...

Live Position

Loading 3D Globe...

Upcoming Passes

Altitude History

Altitude vs Time

uPlot chart will show altitude changes over time

Two-Line Element Set

1 48358U 21038F 25342.48946911 -.00000124 00000-0 10535-4 0 9996
2 48358 53.0542 51.0330 0001254 101.8833 258.2297 15.06395804253272
Epoch: Dec 8, 2025 • Age: 16 hours

Current Status

Altitude 547.8 km
Velocity 7.59 km/s
Sub-Earth Point 3.66°N, 82.71°W
Launch Date May 4, 2021
Age 4.5 years
Type internet

Technical Details

Classification Payload
Mass 260.00 kg
Dry Mass 248.00 kg
Total Mass 260.00 kg
Length 0.20 m
Diameter 2.80 m
Span 9.00 m
Shape Box + pan
Manufacturer SPXS
Bus Type Starlink
Phase Status In Orbit
Owner/State SPXS/US

Large Constellations

Loading constellations...